QPF
0.01 0.01 0.01 0.01 0.01 0.01 0.01 0.01 0.01 0.02 0.02 0.02 0.03 0.06 0.07 0.05 0.05 0.07 0.06 0.05 0.04 0.04 0.05 0.06 0.07 0.07 0.07 0.06 0.06 0.06 0.07 0.06 0.05 0.06 0.06 0.06 0.06 0.05 0.04 0.03 0.02 0.02 0.02
0.01 0.01 0.02 0.02 0.01 0.01 0.01 0.01 0.01 0.02 0.02 0.02 0.02 0.03 0.04 0.05 0.05 0.07 0.07 0.07 0.06 0.05 0.05 0.04 0.05 0.06 0.07 0.06 0.06 0.06 0.05 0.05 0.05 0.05 0.06 0.06 0.06 0.05 0.05 0.04 0.04 0.03 0.02
0.02 0.01 0.01 0.01 0.01 0.01 0.01 0.01 0.01 0.01 0.02 0.02 0.02 0.03 0.04 0.04 0.05 0.06 0.06 0.04 0.04 0.04 0.05 0.04 0.05 0.06 0.06 0.07 0.08 0.07 0.07 0.06 0.06 0.05 0.04 0.04 0.05 0.05 0.05 0.06 0.05 0.04 0.03
0.02 0.03 0.01 0.01 0.01 0.01 0.02 0.02 0.01 0.01 0.02 0.02 0.03 0.03 0.03 0.03 0.03 0.04 0.04 0.04 0.03 0.03 0.03 0.04 0.04 0.04 0.05 0.05 0.07 0.08 0.07 0.06 0.06 0.06 0.05 0.08 0.07 0.08 0.07 0.07 0.05 0.04 0.03
0.01 0.02 0.02 0.01 0.01 0.01 0.02 0.03 0.03 0.03 0.03 0.03 0.03 0.03 0.03 0.02 0.03 0.04 0.04 0.03 0.04 0.04 0.03 0.04 0.03 0.03 0.04 0.05 0.05 0.06 0.06 0.06 0.07 0.06 0.06 0.07 0.05 0.04 0.05 0.05 0.04 0.03 0.03
0.01 0.01 0.02 0.01 0.01 0.01 0.01 0.02 0.02 0.03 0.03 0.03 0.02 0.02 0.02 0.02 0.03 0.04 0.05 0.04 0.04 0.04 0.04 0.05 0.04 0.03 0.03 0.04 0.04 0.05 0.06 0.06 0.07 0.06 0.06 0.06 0.04 0.04 0.05 0.05 0.03 0.03 0.03
0.01 0.01 0.02 0.02 0.02 0.02 0.03 0.04 0.04 0.04 0.03 0.02 0.02 0.02 0.01 0.03 0.04 0.04 0.04 0.04 0.04 0.03 0.03 0.04 0.04 0.03 0.05 0.04 0.05 0.05 0.05 0.05 0.06 0.06 0.05 0.04 0.03 0.03 0.05 0.04 0.03 0.03 0.02
0.04 0.03 0.03 0.04 0.05 0.04 0.04 0.04 0.04 0.04 0.03 0.03 0.03 0.02 0.02 0.03 0.03 0.03 0.01 0.01 0.02 0.02 0.03 0.04 0.04 0.05 0.06 0.06 0.05 0.05 0.05 0.04 0.04 0.04 0.04 0.05 0.04 0.04 0.04 0.04 0.04 0.03 0.03
0.06 0.05 0.05 0.05 0.04 0.04 0.04 0.04 0.04 0.03 0.03 0.03 0.03 0.03 0.03 0.03 0.02 0.02 0.02 0.01 0.02 0.02 0.02 0.03 0.04 0.05 0.06 0.06 0.06 0.04 0.04 0.04 0.03 0.03 0.03 0.03 0.03 0.03 0.04 0.04 0.05 0.04 0.03
0.09 0.08 0.06 0.05 0.04 0.04 0.04 0.03 0.03 0.02 0.02 0.02 0.02 0.03 0.03 0.02 0.02 0.02 0.02 0.01 0.01 0.02 0.03 0.03 0.04 0.04 0.05 0.06 0.05 0.04 0.03 0.03 0.03 0.02 0.02 0.02 0.02 0.02 0.03 0.04 0.04 0.03 0.02
0.09 0.07 0.05 0.05 0.04 0.03 0.02 0.03 0.02 0.02 0.02 0.02 0.02 0.02 0.02 0.02 0.02 0.02 0.02 0.02 0.02 0.02 0.02 0.03 0.03 0.03 0.03 0.03 0.03 0.03 0.03 0.02 0.02 0.02 0.02 0.02 0.02 0.02 0.04 0.04 0.03 0.03 0.03
0.03 0.04 0.04 0.03 0.03 0.02 0.02 0.01 0.01 0.01 0.01 0.01 0.01 0.01 0.01 0.01 0.02 0.02 0.02 0.02 0.02 0.02 0.02 0.03 0.03 0.02 0.02 0.02 0.02 0.02 0.03 0.02 0.02 0.02 0.02 0.02 0.02 0.02 0.04 0.04 0.03 0.03 0.03
0.02 0.02 0.03 0.02 0.03 0.03 0.02 0.01 0.01 0.01 0.01 0.01 0.01 0.00 0.00 0.01 0.01 0.02 0.01 0.01 0.02 0.01 0.01 0.02 0.02 0.02 0.02 0.02 0.01 0.01 0.02 0.02 0.01 0.02 0.02 0.02 0.01 0.02 0.03 0.04 0.04 0.03 0.03
0.02 0.02 0.03 0.03 0.05 0.07 0.06 0.03 0.01 0.01 0.00 0.01 0.01 0.01 0.00 0.01 0.01 0.01 0.01 0.01 0.01 0.01 0.01 0.02 0.02 0.02 0.01 0.01 0.01 0.01 0.02 0.02 0.01 0.01 0.02 0.02 0.02 0.03 0.03 0.03 0.04 0.03 0.03
0.02 0.03 0.04 0.04 0.06 0.07 0.06 0.04 0.02 0.01 0.01 0.01 0.01 0.01 0.01 0.01 0.00 0.01 0.01 0.01 0.01 0.01 0.01 0.01 0.01 0.01 0.01 0.01 0.01 0.02 0.02 0.02 0.02 0.02 0.03 0.03 0.03 0.04 0.05 0.05 0.04 0.03 0.03
0.01 0.02 0.04 0.05 0.06 0.06 0.05 0.05 0.04 0.03 0.02 0.02 0.01 0.01 0.01 0.00 0.01 0.01 0.01 0.01 0.01 0.01 0.01 0.01 0.01 0.01 0.01 0.01 0.01 0.01 0.02 0.02 0.03 0.03 0.04 0.04 0.03 0.03 0.04 0.04 0.03 0.04 0.04
0.02 0.02 0.02 0.04 0.04 0.03 0.02 0.02 0.02 0.02 0.01 0.01 0.01 0.01 0.01 0.00 0.00 0.00 0.01 0.01 0.01 0.01 0.01 0.01 0.02 0.02 0.01 0.01 0.01 0.01 0.02 0.02 0.02 0.02 0.02 0.02 0.02 0.03 0.02 0.03 0.04 0.05 0.04
0.01 0.01 0.01 0.02 0.02 0.02 0.01 0.01 0.01 0.01 0.01 0.02 0.02 0.02 0.01 0.01 0.00 0.00 0.00 0.01 0.01 0.01 0.02 0.02 0.02 0.02 0.02 0.02 0.02 0.02 0.02 0.01 0.01 0.01 0.01 0.01 0.01 0.02 0.03 0.04 0.05 0.04 0.03
0.01 0.01 0.01 0.01 0.01 0.01 0.01 0.01 0.01 0.01 0.01 0.02 0.02 0.02 0.01 0.01 0.00 0.00 0.00 0.00 0.01 0.01 0.01 0.01 0.01 0.01 0.02 0.02 0.03 0.03 0.02 0.02 0.02 0.02 0.02 0.01 0.02 0.03 0.04 0.06 0.06 0.04 0.03
0.02 0.02 0.02 0.01 0.01 0.01 0.01 0.01 0.01 0.02 0.02 0.02 0.01 0.01 0.01 0.01 0.01 0.01 0.01 0.01 0.01 0.01 0.01 0.01 0.01 0.01 0.02 0.02 0.03 0.03 0.03 0.03 0.03 0.03 0.03 0.03 0.03 0.04 0.06 0.06 0.04 0.02 0.02
0.02 0.02 0.02 0.01 0.01 0.01 0.01 0.02 0.02 0.01 0.02 0.02 0.02 0.01 0.01 0.01 0.01 0.01 0.01 0.01 0.01 0.01 0.01 0.01 0.01 0.01 0.01 0.02 0.02 0.02 0.02 0.02 0.03 0.03 0.03 0.03 0.04 0.04 0.04 0.03 0.02 0.02 0.02
0.02 0.02 0.02 0.01 0.01 0.01 0.02 0.02 0.02 0.02 0.02 0.02 0.02 0.02 0.01 0.01 0.01 0.01 0.01 0.01 0.01 0.01 0.01 0.01 0.01 0.01 0.01 0.01 0.02 0.02 0.01 0.01 0.02 0.01 0.02 0.02 0.03 0.03 0.02 0.02 0.03 0.03 0.03
0.02 0.02 0.02 0.01 0.01 0.02 0.02 0.02 0.02 0.02 0.02 0.02 0.02 0.02 0.02 0.02 0.02 0.01 0.01 0.01 0.01 0.01 0.01 0.01 0.01 0.01 0.01 0.01 0.02 0.01 0.01 0.01 0.01 0.02 0.02 0.01 0.01 0.01 0.01 0.02 0.03 0.03 0.03
0.02 0.02 0.02 0.02 0.01 0.02 0.02 0.02 0.02 0.01 0.01 0.01 0.02 0.02 0.02 0.02 0.01 0.01 0.01 0.01 0.01 0.01 0.02 0.01 0.01 0.01 0.02 0.02 0.01 0.01 0.01 0.02 0.01 0.01 0.01 0.02 0.02 0.02 0.01 0.01 0.02 0.02 0.03
0.02 0.02 0.02 0.02 0.02 0.02 0.02 0.02 0.01 0.01 0.01 0.01 0.01 0.01 0.01 0.01 0.01 0.01 0.01 0.01 0.01 0.02 0.02 0.02 0.01 0.01 0.01 0.01 0.01 0.01 0.01 0.02 0.02 0.01 0.01 0.02 0.02 0.02 0.01 0.01 0.01 0.02 0.02
0.02 0.02 0.02 0.02 0.02 0.02 0.02 0.01 0.02 0.02 0.01 0.01 0.01 0.01 0.01 0.02 0.02 0.02 0.02 0.03 0.04 0.04 0.03 0.02 0.01 0.01 0.01 0.01 0.01 0.01 0.01 0.01 0.01 0.01 0.01 0.01 0.01 0.01 0.01 0.01 0.01 0.02 0.02
MSLP
1012.51 1012.67 1012.86 1013.07 1013.30 1013.52 1013.72 1013.89 1014.03 1014.15 1014.24 1014.32 1014.40 1014.49 1014.58 1014.69 1014.79 1014.89 1014.97 1015.03 1015.05 1015.03 1014.99 1014.92 1014.85 1014.81 1014.82 1014.91 1015.11 1015.43 1015.87 1016.42 1017.04 1017.71 1018.37 1018.97 1019.47 1019.85 1020.10 1020.23 1020.25 1020.21 1020.14
1012.72 1012.87 1013.04 1013.23 1013.42 1013.61 1013.78 1013.93 1014.05 1014.15 1014.22 1014.28 1014.33 1014.39 1014.46 1014.55 1014.65 1014.76 1014.86 1014.93 1014.98 1014.98 1014.94 1014.87 1014.79 1014.73 1014.72 1014.80 1015.01 1015.35 1015.84 1016.45 1017.15 1017.90 1018.62 1019.28 1019.81 1020.19 1020.41 1020.48 1020.44 1020.33 1020.19
1012.84 1013.03 1013.22 1013.40 1013.58 1013.76 1013.92 1014.06 1014.17 1014.25 1014.31 1014.34 1014.37 1014.40 1014.45 1014.51 1014.60 1014.71 1014.82 1014.92 1014.98 1015.01 1014.99 1014.93 1014.85 1014.78 1014.76 1014.83 1015.04 1015.39 1015.91 1016.55 1017.29 1018.08 1018.83 1019.50 1020.03 1020.39 1020.57 1020.59 1020.48 1020.31 1020.11
1012.84 1013.10 1013.34 1013.55 1013.76 1013.95 1014.12 1014.26 1014.38 1014.46 1014.51 1014.53 1014.54 1014.55 1014.57 1014.61 1014.68 1014.78 1014.89 1015.00 1015.08 1015.12 1015.12 1015.08 1015.01 1014.94 1014.92 1014.99 1015.19 1015.54 1016.05 1016.70 1017.44 1018.22 1018.98 1019.63 1020.14 1020.46 1020.59 1020.55 1020.39 1020.16 1019.91
1012.69 1013.05 1013.36 1013.64 1013.89 1014.11 1014.31 1014.49 1014.63 1014.73 1014.79 1014.82 1014.82 1014.82 1014.82 1014.84 1014.89 1014.97 1015.07 1015.18 1015.27 1015.33 1015.34 1015.31 1015.26 1015.20 1015.19 1015.25 1015.44 1015.77 1016.26 1016.87 1017.58 1018.33 1019.04 1019.65 1020.11 1020.38 1020.47 1020.38 1020.18 1019.91 1019.64
1012.41 1012.87 1013.27 1013.62 1013.93 1014.21 1014.46 1014.68 1014.86 1015.00 1015.10 1015.15 1015.17 1015.16 1015.16 1015.17 1015.20 1015.26 1015.34 1015.43 1015.52 1015.59 1015.62 1015.61 1015.58 1015.54 1015.53 1015.59 1015.76 1016.06 1016.50 1017.06 1017.71 1018.39 1019.03 1019.58 1019.97 1020.20 1020.24 1020.12 1019.89 1019.60 1019.32
1012.03 1012.57 1013.04 1013.46 1013.83 1014.17 1014.48 1014.76 1015.00 1015.20 1015.35 1015.45 1015.51 1015.53 1015.53 1015.53 1015.54 1015.58 1015.65 1015.73 1015.81 1015.88 1015.92 1015.94 1015.92 1015.90 1015.91 1015.97 1016.12 1016.39 1016.77 1017.26 1017.83 1018.41 1018.97 1019.43 1019.76 1019.93 1019.94 1019.80 1019.56 1019.28 1019.01
1011.61 1012.19 1012.70 1013.17 1013.58 1013.97 1014.34 1014.68 1015.00 1015.27 1015.49 1015.65 1015.76 1015.81 1015.84 1015.85 1015.86 1015.88 1015.93 1016.00 1016.08 1016.15 1016.21 1016.25 1016.26 1016.27 1016.29 1016.36 1016.50 1016.73 1017.05 1017.46 1017.93 1018.42 1018.88 1019.25 1019.51 1019.64 1019.62 1019.48 1019.25 1018.99 1018.75
1011.23 1011.80 1012.31 1012.77 1013.21 1013.62 1014.03 1014.42 1014.80 1015.14 1015.44 1015.67 1015.84 1015.95 1016.01 1016.04 1016.07 1016.09 1016.13 1016.20 1016.28 1016.36 1016.44 1016.51 1016.56 1016.60 1016.65 1016.73 1016.86 1017.05 1017.31 1017.64 1018.02 1018.41 1018.77 1019.07 1019.27 1019.35 1019.32 1019.19 1019.00 1018.78 1018.58
1010.96 1011.46 1011.91 1012.33 1012.74 1013.14 1013.56 1013.99 1014.41 1014.81 1015.17 1015.48 1015.71 1015.88 1015.99 1016.06 1016.11 1016.15 1016.21 1016.28 1016.38 1016.48 1016.59 1016.69 1016.78 1016.87 1016.94 1017.04 1017.16 1017.32 1017.54 1017.80 1018.09 1018.39 1018.66 1018.89 1019.04 1019.10 1019.07 1018.98 1018.83 1018.67 1018.53
1010.83 1011.21 1011.55 1011.88 1012.22 1012.58 1012.97 1013.39 1013.83 1014.27 1014.68 1015.05 1015.35 1015.58 1015.75 1015.87 1015.96 1016.04 1016.13 1016.23 1016.36 1016.49 1016.64 1016.78 1016.92 1017.03 1017.15 1017.26 1017.38 1017.52 1017.69 1017.89 1018.11 1018.34 1018.55 1018.73 1018.85 1018.90 1018.90 1018.84 1018.75 1018.65 1018.57
1010.86 1011.08 1011.27 1011.48 1011.71 1011.98 1012.31 1012.69 1013.12 1013.56 1014.00 1014.41 1014.76 1015.06 1015.29 1015.48 1015.63 1015.77 1015.90 1016.05 1016.22 1016.40 1016.58 1016.77 1016.94 1017.09 1017.23 1017.36 1017.48 1017.60 1017.74 1017.90 1018.07 1018.25 1018.42 1018.57 1018.68 1018.75 1018.78 1018.77 1018.75 1018.72 1018.70
1011.02 1011.05 1011.09 1011.14 1011.23 1011.39 1011.63 1011.94 1012.32 1012.74 1013.18 1013.61 1014.00 1014.35 1014.65 1014.91 1015.14 1015.34 1015.55 1015.75 1015.97 1016.20 1016.43 1016.65 1016.85 1017.03 1017.18 1017.31 1017.43 1017.55 1017.67 1017.80 1017.94 1018.10 1018.25 1018.39 1018.52 1018.62 1018.70 1018.75 1018.78 1018.82 1018.85
1011.25 1011.12 1010.98 1010.87 1010.82 1010.85 1010.97 1011.19 1011.50 1011.87 1012.28 1012.71 1013.13 1013.52 1013.89 1014.22 1014.53 1014.82 1015.10 1015.38 1015.65 1015.93 1016.19 1016.43 1016.65 1016.84 1016.99 1017.12 1017.23 1017.34 1017.45 1017.57 1017.71 1017.86 1018.02 1018.19 1018.35 1018.49 1018.62 1018.73 1018.82 1018.90 1018.98
1011.51 1011.22 1010.93 1010.68 1010.49 1010.39 1010.39 1010.49 1010.71 1011.00 1011.37 1011.78 1012.21 1012.64 1013.07 1013.47 1013.86 1014.24 1014.60 1014.94 1015.27 1015.59 1015.88 1016.13 1016.35 1016.52 1016.67 1016.78 1016.88 1016.98 1017.09 1017.21 1017.36 1017.54 1017.73 1017.94 1018.14 1018.33 1018.51 1018.67 1018.81 1018.92 1019.02
1011.74 1011.33 1010.92 1010.55 1010.24 1010.01 1009.89 1009.89 1010.00 1010.21 1010.52 1010.89 1011.32 1011.77 1012.24 1012.72 1013.18 1013.63 1014.07 1014.48 1014.86 1015.20 1015.50 1015.75 1015.95 1016.10 1016.22 1016.31 1016.40 1016.49 1016.60 1016.74 1016.92 1017.13 1017.37 1017.63 1017.88 1018.13 1018.36 1018.55 1018.72 1018.85 1018.95
1011.90 1011.41 1010.93 1010.47 1010.06 1009.73 1009.51 1009.39 1009.40 1009.52 1009.76 1010.08 1010.49 1010.95 1011.45 1011.98 1012.51 1013.03 1013.52 1013.99 1014.40 1014.76 1015.06 1015.29 1015.47 1015.59 1015.68 1015.74 1015.81 1015.90 1016.02 1016.18 1016.40 1016.66 1016.95 1017.26 1017.58 1017.87 1018.14 1018.36 1018.54 1018.68 1018.77
1011.98 1011.46 1010.93 1010.41 1009.94 1009.53 1009.21 1009.00 1008.91 1008.94 1009.09 1009.36 1009.73 1010.19 1010.70 1011.26 1011.83 1012.40 1012.94 1013.44 1013.88 1014.25 1014.54 1014.76 1014.90 1015.00 1015.05 1015.10 1015.15 1015.24 1015.38 1015.58 1015.83 1016.14 1016.49 1016.86 1017.22 1017.56 1017.86 1018.10 1018.29 1018.42 1018.50
1011.96 1011.44 1010.90 1010.35 1009.83 1009.37 1008.97 1008.67 1008.49 1008.43 1008.50 1008.71 1009.03 1009.45 1009.96 1010.53 1011.12 1011.72 1012.29 1012.81 1013.27 1013.64 1013.92 1014.12 1014.25 1014.32 1014.36 1014.39 1014.45 1014.55 1014.71 1014.94 1015.24 1015.60 1015.99 1016.41 1016.82 1017.20 1017.52 1017.78 1017.98 1018.10 1018.17
1011.85 1011.34 1010.81 1010.26 1009.71 1009.20 1008.74 1008.37 1008.10 1007.95 1007.94 1008.07 1008.33 1008.71 1009.19 1009.74 1010.33 1010.93 1011.51 1012.04 1012.50 1012.88 1013.16 1013.36 1013.48 1013.55 1013.60 1013.64 1013.72 1013.84 1014.03 1014.30 1014.64 1015.04 1015.48 1015.93 1016.38 1016.78 1017.13 1017.41 1017.62 1017.75 1017.82
1011.64 1011.15 1010.63 1010.08 1009.51 1008.97 1008.46 1008.02 1007.67 1007.44 1007.34 1007.39 1007.57 1007.89 1008.32 1008.83 1009.40 1009.98 1010.56 1011.09 1011.55 1011.94 1012.23 1012.45 1012.59 1012.69 1012.76 1012.84 1012.95 1013.11 1013.34 1013.65 1014.03 1014.46 1014.93 1015.42 1015.89 1016.32 1016.69 1017.00 1017.23 1017.38 1017.47
1011.29 1010.83 1010.32 1009.77 1009.20 1008.62 1008.07 1007.57 1007.16 1006.85 1006.66 1006.62 1006.73 1006.96 1007.32 1007.78 1008.30 1008.85 1009.40 1009.92 1010.39 1010.79 1011.11 1011.36 1011.55 1011.70 1011.83 1011.97 1012.14 1012.36 1012.64 1012.99 1013.40 1013.86 1014.36 1014.86 1015.35 1015.80 1016.20 1016.53 1016.79 1016.99 1017.12
1010.80 1010.35 1009.85 1009.30 1008.72 1008.12 1007.54 1006.99 1006.52 1006.14 1005.88 1005.75 1005.76 1005.91 1006.19 1006.57 1007.02 1007.52 1008.04 1008.54 1009.02 1009.44 1009.80 1010.11 1010.37 1010.60 1010.81 1011.03 1011.28 1011.57 1011.91 1012.30 1012.75 1013.23 1013.74 1014.25 1014.75 1015.22 1015.64 1016.00 1016.31 1016.56 1016.76
1010.17 1009.72 1009.22 1008.68 1008.09 1007.48 1006.87 1006.29 1005.76 1005.32 1004.99 1004.78 1004.71 1004.77 1004.95 1005.24 1005.62 1006.06 1006.53 1007.01 1007.48 1007.93 1008.34 1008.72 1009.06 1009.39 1009.70 1010.03 1010.37 1010.74 1011.15 1011.59 1012.06 1012.56 1013.08 1013.59 1014.10 1014.57 1015.01 1015.41 1015.76 1016.07 1016.34
1009.40 1008.96 1008.46 1007.91 1007.33 1006.71 1006.09 1005.49 1004.93 1004.45 1004.05 1003.77 1003.62 1003.59 1003.68 1003.88 1004.18 1004.54 1004.96 1005.41 1005.88 1006.34 1006.80 1007.25 1007.68 1008.11 1008.54 1008.97 1009.41 1009.87 1010.35 1010.84 1011.35 1011.87 1012.38 1012.90 1013.40 1013.88 1014.33 1014.76 1015.16 1015.52 1015.86
1008.54 1008.10 1007.61 1007.07 1006.48 1005.87 1005.25 1004.64 1004.07 1003.56 1003.13 1002.79 1002.57 1002.46 1002.46 1002.57 1002.78 1003.07 1003.43 1003.84 1004.28 1004.76 1005.26 1005.77 1006.28 1006.81 1007.34 1007.88 1008.43 1008.97 1009.52 1010.07 1010.61 1011.14 1011.67 1012.18 1012.67 1013.15 1013.61 1014.06 1014.49 1014.90 1015.30
Thickness
5772 5769 5765 5762 5759 5756 5752 5749 5746 5743 5741 5739 5738 5736 5734 5733 5731 5729 5729 5728 5726 5725 5724 5723 5722 5722 5723 5723 5722 5721 5719 5718 5713 5716 5716 5715 5712 5712 5712 5713 5715 5714 5714
5770 5765 5761 5758 5755 5752 5749 5746 5743 5740 5738 5736 5734 5732 5730 5729 5727 5726 5724 5723 5721 5720 5719 5717 5716 5717 5715 5715 5715 5714 5713 5711 5709 5706 5706 5707 5705 5705 5706 5707 5710 5712 5711
5767 5762 5757 5754 5751 5747 5745 5742 5740 5737 5734 5732 5729 5727 5725 5724 5722 5721 5720 5718 5716 5715 5714 5712 5711 5710 5708 5708 5707 5707 5707 5707 5705 5702 5700 5701 5701 5701 5700 5702 5704 5703 5706
5763 5758 5752 5749 5745 5743 5740 5737 5735 5732 5730 5727 5725 5723 5721 5720 5718 5716 5715 5713 5711 5710 5708 5707 5706 5704 5703 5702 5702 5700 5700 5698 5697 5696 5695 5694 5693 5694 5693 5694 5696 5698 5699
5758 5754 5749 5745 5742 5738 5735 5732 5730 5728 5726 5722 5720 5718 5717 5716 5714 5711 5709 5708 5706 5704 5703 5701 5700 5698 5696 5696 5697 5695 5694 5692 5692 5691 5689 5689 5688 5686 5686 5689 5690 5692 5693
5752 5748 5744 5741 5737 5733 5730 5728 5725 5722 5719 5717 5715 5713 5711 5711 5705 5703 5702 5702 5700 5698 5697 5695 5695 5693 5691 5688 5687 5685 5685 5685 5684 5683 5683 5682 5680 5681 5681 5682 5683 5683 5683
5746 5742 5739 5735 5731 5728 5726 5723 5719 5715 5713 5711 5709 5707 5704 5701 5697 5695 5694 5694 5694 5693 5691 5689 5691 5690 5686 5685 5681 5679 5677 5675 5675 5675 5675 5675 5675 5675 5673 5674 5673 5674 5675
5740 5736 5733 5730 5726 5723 5720 5717 5713 5710 5708 5705 5702 5699 5697 5694 5690 5688 5687 5688 5688 5686 5684 5683 5681 5680 5679 5677 5676 5675 5674 5672 5670 5669 5670 5669 5669 5667 5666 5667 5666 5667 5668
5733 5729 5727 5724 5721 5717 5713 5710 5707 5704 5701 5699 5696 5692 5689 5686 5683 5680 5679 5682 5681 5679 5678 5676 5674 5672 5668 5667 5668 5667 5666 5665 5663 5661 5660 5660 5658 5657 5657 5659 5659 5660 5662
5727 5723 5720 5717 5714 5710 5707 5703 5700 5697 5694 5692 5689 5685 5682 5679 5675 5673 5671 5675 5674 5672 5671 5669 5665 5663 5659 5658 5659 5659 5658 5657 5656 5656 5653 5653 5653 5652 5650 5651 5653 5653 5655
5721 5717 5713 5710 5706 5703 5699 5695 5692 5689 5686 5683 5681 5678 5674 5671 5668 5665 5663 5665 5665 5665 5664 5662 5659 5652 5650 5649 5648 5650 5648 5647 5648 5648 5648 5648 5647 5647 5646 5645 5645 5646 5646
5713 5710 5706 5702 5700 5696 5691 5687 5684 5681 5678 5676 5673 5670 5668 5665 5661 5657 5655 5653 5653 5654 5654 5653 5649 5643 5641 5639 5639 5638 5637 5636 5640 5641 5641 5640 5640 5640 5639 5638 5637 5636 5635
5704 5700 5697 5694 5691 5688 5684 5681 5678 5675 5673 5671 5668 5665 5662 5659 5655 5649 5647 5645 5643 5644 5644 5639 5636 5634 5633 5633 5631 5630 5629 5632 5633 5633 5632 5632 5632 5631 5631 5629 5628 5627 5626
5695 5691 5688 5685 5682 5679 5676 5675 5672 5668 5666 5663 5660 5657 5655 5651 5648 5644 5642 5640 5636 5636 5636 5632 5628 5626 5626 5625 5625 5625 5625 5625 5625 5625 5625 5624 5624 5623 5621 5621 5621 5620 5619
5686 5683 5680 5678 5675 5671 5668 5665 5663 5660 5656 5653 5652 5650 5646 5643 5637 5631 5631 5631 5629 5628 5625 5626 5624 5622 5621 5620 5620 5619 5618 5617 5616 5616 5616 5615 5614 5614 5613 5612 5611 5611 5610
5678 5676 5675 5673 5669 5666 5663 5659 5654 5651 5646 5642 5638 5636 5636 5630 5626 5622 5619 5617 5615 5614 5615 5618 5616 5614 5613 5612 5611 5610 5609 5608 5607 5606 5606 5605 5604 5604 5603 5602 5602 5601 5600
5670 5668 5668 5666 5663 5660 5658 5654 5650 5645 5639 5635 5630 5627 5624 5620 5616 5613 5610 5608 5606 5604 5608 5609 5608 5606 5605 5604 5602 5601 5600 5599 5597 5596 5596 5595 5594 5594 5593 5592 5592 5591 5591
5663 5660 5658 5657 5656 5653 5650 5648 5645 5642 5638 5634 5626 5620 5616 5612 5608 5605 5602 5600 5602 5600 5602 5601 5599 5598 5596 5595 5594 5592 5591 5590 5588 5587 5587 5586 5586 5585 5584 5583 5583 5581 5582
5657 5654 5651 5649 5647 5645 5642 5641 5639 5635 5631 5628 5625 5618 5609 5605 5601 5598 5595 5599 5600 5598 5596 5594 5592 5590 5588 5586 5585 5583 5582 5580 5579 5578 5578 5577 5577 5576 5576 5575 5575 5571 5571
5648 5642 5640 5640 5640 5637 5634 5631 5629 5627 5624 5620 5617 5613 5607 5602 5600 5596 5593 5593 5592 5590 5587 5586 5584 5582 5580 5578 5576 5575 5574 5572 5571 5570 5570 5569 5569 5568 5567 5567 5567 5567 5566
5642 5638 5632 5632 5631 5629 5625 5623 5620 5618 5615 5612 5609 5604 5595 5596 5595 5592 5589 5586 5584 5582 5580 5578 5576 5574 5572 5570 5569 5568 5566 5565 5564 5563 5562 5561 5560 5559 5558 5559 5559 5559 5558
5635 5632 5629 5626 5624 5620 5617 5615 5612 5609 5606 5603 5600 5596 5587 5588 5588 5586 5583 5580 5578 5574 5572 5570 5569 5567 5565 5564 5561 5560 5559 5558 5557 5555 5554 5552 5551 5551 5551 5551 5551 5551 5550
5626 5624 5622 5619 5616 5610 5609 5607 5604 5602 5599 5596 5593 5589 5585 5583 5580 5578 5575 5573 5570 5568 5565 5563 5562 5560 5559 5556 5554 5553 5552 5551 5549 5547 5545 5544 5544 5544 5543 5543 5543 5543 5543
5618 5616 5615 5612 5608 5606 5603 5600 5598 5595 5592 5589 5585 5582 5580 5576 5573 5570 5568 5565 5563 5561 5559 5557 5555 5553 5551 5549 5548 5547 5544 5542 5540 5539 5537 5537 5536 5536 5537 5536 5536 5536 5535
5611 5610 5608 5605 5602 5599 5596 5594 5591 5588 5585 5582 5580 5576 5573 5570 5567 5564 5562 5559 5556 5554 5552 5550 5549 5547 5545 5544 5542 5540 5537 5533 5531 5530 5530 5531 5530 5530 5530 5530 5530 5529 5529
5605 5603 5601 5598 5595 5592 5589 5587 5584 5581 5578 5576 5573 5570 5567 5564 5561 5558 5556 5553 5550 5548 5546 5544 5543 5541 5539 5538 5536 5533 5530 5527 5525 5523 5523 5524 5525 5525 5525 5525 5525 5525 5524